Time,TemperatureF,DewpointF,PressureIn,WindDirection,WindDirectionDegrees,WindSpeedMPH,WindSpeedGustMPH,Humidity,HourlyPrecipIn,Conditions,Clouds,dailyrainin,SoftwareType,DateUTC
2013-12-05 00:01:00,26.8,25.3,30.16,East,98,0.0,0.0,94,0.00,,,0.00,WUHU216DAVISVP2,2013-12-05 05:01:00,
2013-12-05 00:03:00,26.8,25.3,30.16,East,99,0.0,0.0,94,0.00,,,0.00,WUHU216DAVISVP2,2013-12-05 05:03:00,
2013-12-05 00:08:00,27.0,25.5,30.16,East,98,0.0,0.0,94,0.00,,,0.00,WUHU216DAVISVP2,2013-12-05 05:08:00,
2013-12-05 00:13:00,27.1,25.6,30.16,East,99,0.0,0.0,94,0.00,,,0.00,WUHU216DAVISVP2,2013-12-05 05:13:00,
2013-12-05 00:18:00,27.2,25.7,30.16,East,99,0.0,0.0,94,0.00,,,0.00,WUHU216DAVISVP2,2013-12-05 05:18:00,
2013-12-05 00:23:00,27.4,25.9,30.16,East,99,0.0,0.0,94,0.00,,,0.00,WUHU216DAVISVP2,2013-12-05 05:23:00,
2013-12-05 00:28:00,27.6,26.1,30.16,East,99,0.0,0.0,94,0.00,,,0.00,WUHU216DAVISVP2,2013-12-05 05:28:00,
2013-12-05 00:33:00,27.9,26.4,30.16,East,99,0.0,0.0,94,0.00,,,0.00,WUHU216DAVISVP2,2013-12-05 05:33:00,
2013-12-05 00:38:00,28.1,26.5,30.16,East,99,0.0,0.0,94,0.00,,,0.00,WUHU216DAVISVP2,2013-12-05 05:38:00,
2013-12-05 00:43:00,28.4,26.8,30.15,East,98,0.0,0.0,94,0.00,,,0.00,WUHU216DAVISVP2,2013-12-05 05:43:00,
2013-12-05 00:48:00,28.7,27.1,30.15,East,99,0.0,0.0,94,0.00,,,0.00,WUHU216DAVISVP2,2013-12-05 05:48:00,
2013-12-05 00:53:00,28.9,27.3,30.15,East,99,0.0,0.0,94,0.00,,,0.00,WUHU216DAVISVP2,2013-12-05 05:53:00,
2013-12-05 00:58:00,29.0,27.5,30.15,East,99,0.0,0.0,94,0.00,,,0.00,WUHU216DAVISVP2,2013-12-05 05:58:00,
2013-12-05 01:03:00,29.2,27.4,30.15,WSW,253,0.0,0.0,93,0.00,,,0.00,WUHU216DAVISVP2,2013-12-05 06:03:00,
2013-12-05 01:08:00,29.4,27.6,30.15,WSW,253,0.0,0.0,93,0.00,,,0.00,WUHU216DAVISVP2,2013-12-05 06:08:00,
2013-12-05 01:13:00,29.5,27.7,30.15,WSW,252,0.0,0.0,93,0.00,,,0.00,WUHU216DAVISVP2,2013-12-05 06:13:00,
2013-12-05 01:18:00,29.6,27.8,30.15,WSW,253,0.0,0.0,93,0.00,,,0.00,WUHU216DAVISVP2,2013-12-05 06:18:00,
2013-12-05 01:23:00,29.8,28.0,30.15,SW,229,0.0,1.0,93,0.00,,,0.00,WUHU216DAVISVP2,2013-12-05 06:23:00,
2013-12-05 01:28:00,30.0,28.2,30.15,SW,229,0.0,1.0,93,0.00,,,0.00,WUHU216DAVISVP2,2013-12-05 06:28:00,
2013-12-05 01:33:00,30.1,28.3,30.15,SW,233,0.0,1.0,93,0.00,,,0.00,WUHU216DAVISVP2,2013-12-05 06:33:00,
2013-12-05 01:38:00,30.3,28.2,30.15,SW,233,0.0,1.0,92,0.00,,,0.00,WUHU216DAVISVP2,2013-12-05 06:38:00,
2013-12-05 01:43:00,30.5,28.4,30.15,SW,233,0.0,0.0,92,0.00,,,0.00,WUHU216DAVISVP2,2013-12-05 06:43:00,
2013-12-05 01:48:00,30.6,28.5,30.15,SW,233,0.0,0.0,92,0.00,,,0.00,WUHU216DAVISVP2,2013-12-05 06:48:00,
2013-12-05 01:53:00,30.8,28.7,30.15,SW,233,0.0,0.0,92,0.00,,,0.00,WUHU216DAVISVP2,2013-12-05 06:53:00,
2013-12-05 01:58:00,30.9,28.9,30.15,SW,233,0.0,0.0,92,0.00,,,0.00,WUHU216DAVISVP2,2013-12-05 06:58:00,
2013-12-05 02:03:00,31.1,28.7,30.14,SW,233,0.0,0.0,91,0.00,,,0.00,WUHU216DAVISVP2,2013-12-05 07:03:00,
2013-12-05 02:08:00,31.2,28.8,30.15,SW,233,0.0,0.0,91,0.00,,,0.00,WUHU216DAVISVP2,2013-12-05 07:08:00,
2013-12-05 02:13:00,31.3,28.9,30.15,SW,233,0.0,0.0,91,0.00,,,0.00,WUHU216DAVISVP2,2013-12-05 07:13:00,
2013-12-05 02:18:00,31.3,28.9,30.15,SW,233,0.0,0.0,91,0.00,,,0.00,WUHU216DAVISVP2,2013-12-05 07:18:00,
2013-12-05 02:23:00,31.4,29.0,30.15,SW,233,0.0,0.0,91,0.00,,,0.00,WUHU216DAVISVP2,2013-12-05 07:23:00,
2013-12-05 02:28:00,31.4,28.8,30.15,SW,233,0.0,0.0,90,0.00,,,0.00,WUHU216DAVISVP2,2013-12-05 07:28:00,
2013-12-05 02:33:00,31.5,28.9,30.15,SW,233,0.0,0.0,90,0.00,,,0.00,WUHU216DAVISVP2,2013-12-05 07:33:00,
2013-12-05 02:38:00,31.6,29.0,30.14,SW,233,0.0,0.0,90,0.00,,,0.00,WUHU216DAVISVP2,2013-12-05 07:38:00,
2013-12-05 02:43:00,31.7,29.1,30.14,SW,233,0.0,0.0,90,0.00,,,0.00,WUHU216DAVISVP2,2013-12-05 07:43:00,
2013-12-05 02:48:00,31.7,29.1,30.14,SW,233,0.0,0.0,90,0.00,,,0.00,WUHU216DAVISVP2,2013-12-05 07:48:00,
2013-12-05 02:53:00,31.8,29.2,30.13,SE,132,0.0,0.0,90,0.00,,,0.00,WUHU216DAVISVP2,2013-12-05 07:53:00,
2013-12-05 02:58:00,31.9,29.0,30.13,SE,136,0.0,0.0,89,0.00,,,0.00,WUHU216DAVISVP2,2013-12-05 07:58:00,
2013-12-05 03:03:00,32.0,29.1,30.14,South,190,0.0,0.0,89,0.00,,,0.00,WUHU216DAVISVP2,2013-12-05 08:03:00,
2013-12-05 03:08:00,32.1,29.5,30.14,SSW,200,0.0,0.0,90,0.00,,,0.00,WUHU216DAVISVP2,2013-12-05 08:08:00,
2013-12-05 03:13:00,32.1,29.5,30.13,SSW,200,0.0,0.0,90,0.00,,,0.00,WUHU216DAVISVP2,2013-12-05 08:13:00,
2013-12-05 03:18:00,32.1,29.2,30.13,SSW,200,0.0,0.0,89,0.00,,,0.00,WUHU216DAVISVP2,2013-12-05 08:18:00,
2013-12-05 03:23:00,32.1,29.2,30.12,SSW,200,0.0,0.0,89,0.00,,,0.00,WUHU216DAVISVP2,2013-12-05 08:23:00,
2013-12-05 03:28:00,32.2,29.3,30.11,ESE,120,1.0,1.0,89,0.00,,,0.00,WUHU216DAVISVP2,2013-12-05 08:28:00,
2013-12-05 03:33:00,32.2,29.3,30.12,WSW,250,1.0,1.0,89,0.00,,,0.00,WUHU216DAVISVP2,2013-12-05 08:33:00,
2013-12-05 03:38:00,32.2,29.3,30.12,West,271,0.0,1.0,89,0.00,,,0.00,WUHU216DAVISVP2,2013-12-05 08:38:00,
2013-12-05 03:43:00,32.2,29.3,30.12,SW,225,1.0,1.0,89,0.00,,,0.00,WUHU216DAVISVP2,2013-12-05 08:43:00,
2013-12-05 03:48:00,32.3,29.4,30.11,ESE,120,0.0,1.0,89,0.00,,,0.00,WUHU216DAVISVP2,2013-12-05 08:48:00,
2013-12-05 03:53:00,32.4,29.5,30.12,SW,221,0.0,1.0,89,0.00,,,0.00,WUHU216DAVISVP2,2013-12-05 08:53:00,
2013-12-05 03:58:00,32.4,29.2,30.11,SE,132,0.0,1.0,88,0.00,,,0.00,WUHU216DAVISVP2,2013-12-05 08:58:00,
2013-12-05 04:03:00,32.4,29.2,30.12,SW,230,1.0,1.0,88,0.00,,,0.00,WUHU216DAVISVP2,2013-12-05 09:03:00,
2013-12-05 04:08:00,32.4,29.2,30.12,West,271,0.0,1.0,88,0.00,,,0.00,WUHU216DAVISVP2,2013-12-05 09:08:00,
2013-12-05 04:13:00,32.4,29.5,30.12,West,276,0.0,1.0,89,0.00,,,0.00,WUHU216DAVISVP2,2013-12-05 09:13:00,
2013-12-05 04:18:00,32.5,29.3,30.12,West,276,0.0,1.0,88,0.00,,,0.00,WUHU216DAVISVP2,2013-12-05 09:18:00,
2013-12-05 04:23:00,32.6,29.4,30.11,ESE,120,0.0,0.0,88,0.00,,,0.00,WUHU216DAVISVP2,2013-12-05 09:23:00,
2013-12-05 04:28:00,32.7,29.5,30.11,SE,127,0.0,0.0,88,0.00,,,0.00,WUHU216DAVISVP2,2013-12-05 09:28:00,
2013-12-05 04:33:00,32.7,29.5,30.11,SE,131,0.0,1.0,88,0.00,,,0.00,WUHU216DAVISVP2,2013-12-05 09:33:00,
2013-12-05 04:38:00,32.8,29.6,30.11,SSE,152,0.0,1.0,88,0.00,,,0.00,WUHU216DAVISVP2,2013-12-05 09:38:00,
2013-12-05 04:43:00,32.9,29.4,30.11,ESE,123,1.0,2.0,87,0.00,,,0.00,WUHU216DAVISVP2,2013-12-05 09:43:00,
2013-12-05 04:48:00,33.0,29.5,30.10,SE,132,1.0,2.0,87,0.00,,,0.00,WUHU216DAVISVP2,2013-12-05 09:48:00,
2013-12-05 04:53:00,33.1,29.6,30.09,ESE,107,2.0,2.0,87,0.00,,,0.00,WUHU216DAVISVP2,2013-12-05 09:53:00,
2013-12-05 04:58:00,33.3,29.8,30.09,ESE,118,1.3,3.0,87,0.00,,,0.00,WUHU216DAVISVP2,2013-12-05 09:58:00,
2013-12-05 05:03:00,33.5,30.0,30.09,South,172,0.0,3.0,87,0.00,,,0.00,WUHU216DAVISVP2,2013-12-05 10:03:00,
2013-12-05 05:08:00,33.7,30.2,30.09,SSE,163,4.0,4.0,87,0.00,,,0.00,WUHU216DAVISVP2,2013-12-05 10:08:00,
2013-12-05 05:13:00,34.1,30.6,30.08,SSE,165,2.2,4.0,87,0.00,,,0.00,WUHU216DAVISVP2,2013-12-05 10:13:00,
2013-12-05 05:18:00,34.6,31.4,30.08,SSE,162,2.4,7.0,88,0.00,,,0.00,WUHU216DAVISVP2,2013-12-05 10:18:00,
2013-12-05 05:23:00,35.3,32.3,30.08,South,181,4.0,9.0,89,0.00,,,0.00,WUHU216DAVISVP2,2013-12-05 10:23:00,
2013-12-05 05:28:00,36.0,33.0,30.08,South,183,4.0,9.0,89,0.00,,,0.00,WUHU216DAVISVP2,2013-12-05 10:28:00,
2013-12-05 05:33:00,36.9,34.2,30.07,South,188,3.3,9.0,90,0.00,,,0.00,WUHU216DAVISVP2,2013-12-05 10:33:00,
2013-12-05 05:38:00,37.7,35.0,30.08,South,190,3.9,10.0,90,0.00,,,0.00,WUHU216DAVISVP2,2013-12-05 10:38:00,
2013-12-05 05:43:00,38.0,35.3,30.08,South,180,3.4,10.0,90,0.00,,,0.00,WUHU216DAVISVP2,2013-12-05 10:43:00,
2013-12-05 05:48:00,38.3,35.3,30.08,SSE,166,6.0,10.0,89,0.00,,,0.00,WUHU216DAVISVP2,2013-12-05 10:48:00,
2013-12-05 05:53:00,38.4,35.4,30.08,South,188,4.3,12.0,89,0.00,,,0.00,WUHU216DAVISVP2,2013-12-05 10:53:00,
2013-12-05 05:58:00,38.5,35.8,30.08,South,182,4.0,12.0,90,0.00,,,0.00,WUHU216DAVISVP2,2013-12-05 10:58:00,
2013-12-05 06:03:00,38.5,35.8,30.08,South,171,1.3,12.0,90,0.00,,,0.00,WUHU216DAVISVP2,2013-12-05 11:03:00,
2013-12-05 06:08:00,38.6,35.9,30.08,South,175,3.5,12.0,90,0.00,,,0.00,WUHU216DAVISVP2,2013-12-05 11:08:00,
2013-12-05 06:13:00,38.7,36.0,30.08,South,170,4.0,9.0,90,0.00,,,0.00,WUHU216DAVISVP2,2013-12-05 11:13:00,
2013-12-05 06:18:00,38.8,36.4,30.08,South,181,4.1,11.0,91,0.00,,,0.00,WUHU216DAVISVP2,2013-12-05 11:18:00,
2013-12-05 06:23:00,39.0,36.5,30.07,SSW,197,4.0,11.0,91,0.00,,,0.00,WUHU216DAVISVP2,2013-12-05 11:23:00,
2013-12-05 06:28:00,39.2,36.7,30.07,SSE,164,3.2,11.0,91,0.00,,,0.00,WUHU216DAVISVP2,2013-12-05 11:28:00,
2013-12-05 06:33:00,39.3,36.8,30.07,SSE,147,4.0,11.0,91,0.00,,,0.00,WUHU216DAVISVP2,2013-12-05 11:33:00,
2013-12-05 06:38:00,39.5,37.0,30.06,SE,146,3.1,10.0,91,0.00,,,0.00,WUHU216DAVISVP2,2013-12-05 11:38:00,
2013-12-05 06:43:00,39.6,37.2,30.07,SSE,155,4.0,9.0,91,0.00,,,0.00,WUHU216DAVISVP2,2013-12-05 11:43:00,
2013-12-05 06:48:00,39.7,37.6,30.07,SSE,165,4.4,9.0,92,0.00,,,0.00,WUHU216DAVISVP2,2013-12-05 11:48:00,
2013-12-05 06:53:00,39.8,37.7,30.06,SSE,165,3.6,9.0,92,0.00,,,0.00,WUHU216DAVISVP2,2013-12-05 11:53:00,
2013-12-05 06:58:00,40.0,37.8,30.06,SE,146,10.0,10.0,92,0.00,,,0.00,WUHU216DAVISVP2,2013-12-05 11:58:00,
2013-12-05 07:03:00,40.1,37.9,30.05,SSW,212,7.0,10.0,92,0.00,,,0.00,WUHU216DAVISVP2,2013-12-05 12:03:00,
2013-12-05 07:08:00,40.3,38.2,30.06,South,186,5.0,12.0,92,0.00,,,0.00,WUHU216DAVISVP2,2013-12-05 12:08:00,
2013-12-05 07:13:00,40.4,38.3,30.06,South,169,4.4,12.0,92,0.00,,,0.00,WUHU216DAVISVP2,2013-12-05 12:13:00,
2013-12-05 07:18:00,40.6,38.7,30.06,South,176,4.1,12.0,93,0.00,,,0.00,WUHU216DAVISVP2,2013-12-05 12:18:00,
2013-12-05 07:24:00,40.9,39.0,30.06,South,185,3.9,12.0,93,0.00,,,0.00,WUHU216DAVISVP2,2013-12-05 12:24:00,
2013-12-05 07:29:00,41.2,39.3,30.06,SSE,166,4.0,10.0,93,0.00,,,0.00,WUHU216DAVISVP2,2013-12-05 12:29:00,
2013-12-05 07:34:00,41.3,39.4,30.06,SSE,148,4.0,10.0,93,0.00,,,0.00,WUHU216DAVISVP2,2013-12-05 12:34:00,
2013-12-05 07:39:00,41.5,39.6,30.06,SE,139,4.0,10.0,93,0.00,,,0.00,WUHU216DAVISVP2,2013-12-05 12:39:00,
2013-12-05 07:44:00,41.6,39.7,30.06,SSW,210,5.0,9.0,93,0.00,,,0.00,WUHU216DAVISVP2,2013-12-05 12:44:00,
2013-12-05 07:49:00,41.7,39.8,30.06,SSE,159,3.2,9.0,93,0.00,,,0.00,WUHU216DAVISVP2,2013-12-05 12:49:00,
2013-12-05 07:54:00,41.9,40.0,30.06,SSE,158,3.0,11.0,93,0.00,,,0.00,WUHU216DAVISVP2,2013-12-05 12:54:00,
2013-12-05 07:59:00,41.9,40.3,30.06,SSE,160,3.7,11.0,94,0.00,,,0.00,WUHU216DAVISVP2,2013-12-05 12:59:00,
2013-12-05 08:04:00,42.1,40.5,30.05,SE,137,2.9,11.0,94,0.00,,,0.00,WUHU216DAVISVP2,2013-12-05 13:04:00,
2013-12-05 08:09:00,42.3,40.7,30.05,SSE,149,3.9,11.0,94,0.00,,,0.00,WUHU216DAVISVP2,2013-12-05 13:09:00,
2013-12-05 08:14:00,42.5,40.9,30.05,SSE,158,8.0,10.0,94,0.00,,,0.00,WUHU216DAVISVP2,2013-12-05 13:14:00,
2013-12-05 08:19:00,42.6,40.9,30.05,SE,139,3.8,10.0,94,0.00,,,0.00,WUHU216DAVISVP2,2013-12-05 13:19:00,
2013-12-05 08:24:00,42.7,41.0,30.05,SSE,155,3.8,10.0,94,0.00,,,0.00,WUHU216DAVISVP2,2013-12-05 13:24:00,
2013-12-05 08:29:00,42.7,41.0,30.05,SSE,157,3.2,10.0,94,0.00,,,0.00,WUHU216DAVISVP2,2013-12-05 13:29:00,
2013-12-05 08:34:00,42.7,41.0,30.04,SSE,155,2.9,9.0,94,0.00,,,0.00,WUHU216DAVISVP2,2013-12-05 13:34:00,
2013-12-05 08:39:00,42.7,41.0,30.04,SE,125,4.2,9.0,94,0.00,,,0.00,WUHU216DAVISVP2,2013-12-05 13:39:00,
2013-12-05 08:44:00,43.3,41.9,30.04,SE,127,5.0,8.0,95,0.00,,,0.00,WUHU216DAVISVP2,2013-12-05 13:44:00,
2013-12-05 08:49:00,44.2,43.1,30.04,South,180,4.2,10.0,96,0.00,,,0.00,WUHU216DAVISVP2,2013-12-05 13:49:00,
2013-12-05 08:54:00,44.8,43.7,30.04,SSW,194,5.4,16.0,96,0.00,,,0.00,WUHU216DAVISVP2,2013-12-05 13:54:00,
2013-12-05 08:59:00,45.2,43.9,30.04,SSW,210,2.2,16.0,95,0.00,,,0.00,WUHU216DAVISVP2,2013-12-05 13:59:00,
2013-12-05 09:04:00,45.6,44.3,30.04,South,176,6.0,15.0,95,0.00,,,0.00,WUHU216DAVISVP2,2013-12-05 14:04:00,
2013-12-05 09:09:00,46.0,44.6,30.04,SE,138,4.0,15.0,95,0.00,,,0.00,WUHU216DAVISVP2,2013-12-05 14:09:00,
2013-12-05 09:14:00,46.3,44.9,30.03,South,175,5.4,13.0,95,0.00,,,0.00,WUHU216DAVISVP2,2013-12-05 14:14:00,
2013-12-05 09:19:00,46.4,45.0,30.04,SSW,207,3.7,13.0,95,0.00,,,0.00,WUHU216DAVISVP2,2013-12-05 14:19:00,
2013-12-05 09:24:00,46.5,44.8,30.04,South,190,2.0,13.0,94,0.00,,,0.00,WUHU216DAVISVP2,2013-12-05 14:24:00,
2013-12-05 09:29:00,46.5,44.8,30.04,SSE,161,4.2,13.0,94,0.00,,,0.00,WUHU216DAVISVP2,2013-12-05 14:29:00,
2013-12-05 09:34:00,46.5,44.8,30.04,SSE,161,4.9,12.0,94,0.00,,,0.00,WUHU216DAVISVP2,2013-12-05 14:34:00,
2013-12-05 09:39:00,46.5,45.1,30.04,South,181,6.0,12.0,95,0.00,,,0.00,WUHU216DAVISVP2,2013-12-05 14:39:00,
2013-12-05 09:44:00,46.5,45.1,30.04,South,183,5.0,12.0,95,0.00,,,0.00,WUHU216DAVISVP2,2013-12-05 14:44:00,
2013-12-05 09:49:00,46.4,45.0,30.04,SSE,153,5.0,12.0,95,0.00,,,0.00,WUHU216DAVISVP2,2013-12-05 14:49:00,
2013-12-05 09:54:00,46.4,45.0,30.04,SSE,155,3.6,12.0,95,0.00,,,0.00,WUHU216DAVISVP2,2013-12-05 14:54:00,
2013-12-05 09:59:00,46.4,45.0,30.05,SSE,160,2.9,11.0,95,0.00,,,0.00,WUHU216DAVISVP2,2013-12-05 14:59:00,
2013-12-05 10:04:00,46.6,45.2,30.05,SSE,166,7.0,11.0,95,0.00,,,0.00,WUHU216DAVISVP2,2013-12-05 15:04:00,
2013-12-05 10:09:00,46.9,45.8,30.04,ESE,103,6.0,13.0,96,0.00,,,0.00,WUHU216DAVISVP2,2013-12-05 15:09:00,
2013-12-05 10:14:00,47.2,45.8,30.04,South,178,4.1,13.0,95,0.00,,,0.00,WUHU216DAVISVP2,2013-12-05 15:14:00,
2013-12-05 10:19:00,47.5,46.1,30.04,SSW,192,4.0,13.0,95,0.00,,,0.00,WUHU216DAVISVP2,2013-12-05 15:19:00,
2013-12-05 10:24:00,47.9,46.5,30.04,South,176,7.0,13.0,95,0.00,,,0.00,WUHU216DAVISVP2,2013-12-05 15:24:00,
2013-12-05 10:29:00,48.2,46.8,30.03,South,172,7.0,14.0,95,0.00,,,0.00,WUHU216DAVISVP2,2013-12-05 15:29:00,
2013-12-05 10:34:00,48.5,47.1,30.03,South,188,6.0,14.0,95,0.00,,,0.00,WUHU216DAVISVP2,2013-12-05 15:34:00,
2013-12-05 10:40:00,48.9,47.5,30.03,SSE,168,5.1,14.0,95,0.00,,,0.00,WUHU216DAVISVP2,2013-12-05 15:40:00,
2013-12-05 10:45:00,49.1,47.7,30.03,South,180,4.8,14.0,95,0.00,,,0.00,WUHU216DAVISVP2,2013-12-05 15:45:00,
2013-12-05 10:50:00,49.2,47.8,30.02,South,179,7.5,17.0,95,0.00,,,0.00,WUHU216DAVISVP2,2013-12-05 15:50:00,
2013-12-05 10:55:00,49.2,47.5,30.02,South,177,7.0,17.0,94,0.00,,,0.00,WUHU216DAVISVP2,2013-12-05 15:55:00,
2013-12-05 11:00:00,49.1,47.4,30.01,SSE,166,10.0,17.0,94,0.00,,,0.00,WUHU216DAVISVP2,2013-12-05 16:00:00,
2013-12-05 11:06:00,49.1,47.7,30.01,SW,217,10.0,18.0,95,0.00,,,0.00,WUHU216DAVISVP2,2013-12-05 16:06:00,
2013-12-05 11:11:00,49.1,47.4,30.01,South,191,10.0,18.0,94,0.00,,,0.00,WUHU216DAVISVP2,2013-12-05 16:11:00,
2013-12-05 11:16:00,49.1,47.7,30.00,South,183,8.2,19.0,95,0.00,,,0.00,WUHU216DAVISVP2,2013-12-05 16:16:00,
2013-12-05 11:21:00,49.1,47.7,30.01,South,185,6.6,19.0,95,0.00,,,0.00,WUHU216DAVISVP2,2013-12-05 16:21:00,
2013-12-05 11:26:00,49.2,47.8,30.01,SE,144,9.0,19.0,95,0.00,,,0.00,WUHU216DAVISVP2,2013-12-05 16:26:00,
2013-12-05 11:31:00,49.3,47.9,30.00,WSW,239,14.0,19.0,95,0.00,,,0.00,WUHU216DAVISVP2,2013-12-05 16:31:00,
2013-12-05 11:36:00,49.5,48.1,29.99,South,184,7.6,16.0,95,0.00,,,0.00,WUHU216DAVISVP2,2013-12-05 16:36:00,
2013-12-05 11:41:00,49.5,48.1,29.99,South,179,6.7,17.0,95,0.00,,,0.00,WUHU216DAVISVP2,2013-12-05 16:41:00,
2013-12-05 11:46:00,49.7,48.3,29.98,South,183,6.4,17.0,95,0.00,,,0.00,WUHU216DAVISVP2,2013-12-05 16:46:00,
2013-12-05 11:51:00,49.7,48.0,29.98,SSW,201,7.5,17.0,94,0.00,,,0.00,WUHU216DAVISVP2,2013-12-05 16:51:00,
2013-12-05 11:56:00,49.7,48.3,29.97,South,185,6.3,15.0,95,0.00,,,0.00,WUHU216DAVISVP2,2013-12-05 16:56:00,
2013-12-05 12:01:00,49.7,48.3,29.96,SSW,200,6.0,15.0,95,0.00,,,0.00,WUHU216DAVISVP2,2013-12-05 17:01:00,
2013-12-05 12:06:00,49.8,48.1,29.96,SSW,195,5.4,18.0,94,0.00,,,0.00,WUHU216DAVISVP2,2013-12-05 17:06:00,
2013-12-05 12:11:00,49.9,48.2,29.96,SE,143,9.0,18.0,94,0.00,,,0.00,WUHU216DAVISVP2,2013-12-05 17:11:00,
2013-12-05 12:16:00,50.0,48.3,29.96,SSW,202,6.5,17.0,94,0.00,,,0.00,WUHU216DAVISVP2,2013-12-05 17:16:00,
2013-12-05 12:21:00,50.1,48.4,29.96,SSW,193,6.5,17.0,94,0.00,,,0.00,WUHU216DAVISVP2,2013-12-05 17:21:00,
2013-12-05 12:26:00,50.3,48.6,29.96,SSE,165,12.0,17.0,94,0.00,,,0.00,WUHU216DAVISVP2,2013-12-05 17:26:00,
2013-12-05 12:31:00,50.4,48.7,29.95,SSW,192,6.9,19.0,94,0.00,,,0.00,WUHU216DAVISVP2,2013-12-05 17:31:00,
2013-12-05 12:36:00,50.4,48.7,29.95,SSW,197,7.9,19.0,94,0.00,,,0.00,WUHU216DAVISVP2,2013-12-05 17:36:00,
2013-12-05 12:41:00,50.4,48.7,29.95,SSW,206,7.3,21.0,94,0.00,,,0.00,WUHU216DAVISVP2,2013-12-05 17:41:00,
2013-12-05 12:46:00,50.4,48.7,29.95,SSE,167,10.0,21.0,94,0.00,,,0.00,WUHU216DAVISVP2,2013-12-05 17:46:00,
2013-12-05 12:51:00,50.6,48.9,29.95,South,183,15.0,21.0,94,0.00,,,0.00,WUHU216DAVISVP2,2013-12-05 17:51:00,
2013-12-05 12:56:00,50.8,49.1,29.94,South,187,8.8,21.0,94,0.00,,,0.00,WUHU216DAVISVP2,2013-12-05 17:56:00,
2013-12-05 13:01:00,50.9,49.2,29.94,South,174,8.0,21.0,94,0.00,,,0.00,WUHU216DAVISVP2,2013-12-05 18:01:00,
2013-12-05 13:06:00,51.1,49.7,29.95,South,180,7.0,22.0,95,0.00,,,0.00,WUHU216DAVISVP2,2013-12-05 18:06:00,
2013-12-05 13:11:00,51.3,49.6,29.95,SW,229,12.0,22.0,94,0.00,,,0.00,WUHU216DAVISVP2,2013-12-05 18:11:00,
2013-12-05 13:16:00,51.5,49.8,29.95,WSW,248,9.0,22.0,94,0.00,,,0.00,WUHU216DAVISVP2,2013-12-05 18:16:00,
2013-12-05 13:21:00,51.7,50.0,29.95,SSW,193,19.0,22.0,94,0.00,,,0.00,WUHU216DAVISVP2,2013-12-05 18:21:00,
2013-12-05 13:26:00,51.9,50.2,29.95,South,169,17.0,20.0,94,0.00,,,0.00,WUHU216DAVISVP2,2013-12-05 18:26:00,
2013-12-05 13:31:00,52.1,50.4,29.95,SSW,211,8.5,21.0,94,0.00,,,0.00,WUHU216DAVISVP2,2013-12-05 18:31:00,
2013-12-05 13:36:00,52.1,50.4,29.94,South,189,8.6,21.0,94,0.00,,,0.00,WUHU216DAVISVP2,2013-12-05 18:36:00,
2013-12-05 13:41:00,52.1,50.4,29.94,South,189,9.9,23.0,94,0.00,,,0.00,WUHU216DAVISVP2,2013-12-05 18:41:00,
2013-12-05 13:46:00,52.1,50.4,29.94,South,174,8.2,23.0,94,0.00,,,0.00,WUHU216DAVISVP2,2013-12-05 18:46:00,
2013-12-05 13:51:00,52.0,50.3,29.94,SSW,193,8.4,23.0,94,0.00,,,0.00,WUHU216DAVISVP2,2013-12-05 18:51:00,
2013-12-05 13:56:00,51.9,50.2,29.94,South,190,7.0,23.0,94,0.00,,,0.00,WUHU216DAVISVP2,2013-12-05 18:56:00,
2013-12-05 14:01:00,51.8,50.1,29.94,SSE,152,9.0,18.0,94,0.00,,,0.00,WUHU216DAVISVP2,2013-12-05 19:01:00,
2013-12-05 14:06:00,51.7,50.0,29.94,SSW,197,6.0,18.0,94,0.00,,,0.00,WUHU216DAVISVP2,2013-12-05 19:06:00,
2013-12-05 14:11:00,51.6,49.9,29.94,South,169,6.1,18.0,94,0.00,,,0.00,WUHU216DAVISVP2,2013-12-05 19:11:00,
2013-12-05 14:16:00,51.4,50.0,29.93,South,175,5.8,20.0,95,0.00,,,0.00,WUHU216DAVISVP2,2013-12-05 19:16:00,
2013-12-05 14:21:00,51.4,50.0,29.94,South,173,12.0,20.0,95,0.00,,,0.00,WUHU216DAVISVP2,2013-12-05 19:21:00,
2013-12-05 14:26:00,51.4,50.0,29.93,SSE,165,8.6,20.0,95,0.00,,,0.00,WUHU216DAVISVP2,2013-12-05 19:26:00,
2013-12-05 14:31:00,51.3,49.9,29.92,South,180,8.6,19.0,95,0.00,,,0.00,WUHU216DAVISVP2,2013-12-05 19:31:00,
2013-12-05 14:36:00,51.3,49.9,29.93,South,187,6.4,20.0,95,0.00,,,0.00,WUHU216DAVISVP2,2013-12-05 19:36:00,
2013-12-05 14:41:00,51.3,49.9,29.92,SSW,195,8.0,20.0,95,0.00,,,0.00,WUHU216DAVISVP2,2013-12-05 19:41:00,
2013-12-05 14:46:00,51.2,49.8,29.93,South,191,9.0,20.0,95,0.00,,,0.00,WUHU216DAVISVP2,2013-12-05 19:46:00,
2013-12-05 14:51:00,51.2,49.8,29.93,South,190,6.1,20.0,95,0.00,,,0.00,WUHU216DAVISVP2,2013-12-05 19:51:00,
2013-12-05 14:56:00,51.1,49.7,29.93,SSW,210,6.0,16.0,95,0.00,,,0.00,WUHU216DAVISVP2,2013-12-05 19:56:00,
2013-12-05 15:01:00,50.9,49.5,29.93,SSE,152,7.0,15.0,95,0.00,,,0.00,WUHU216DAVISVP2,2013-12-05 20:01:00,
2013-12-05 15:06:00,50.8,49.4,29.93,SSW,198,6.0,15.0,95,0.00,,,0.00,WUHU216DAVISVP2,2013-12-05 20:06:00,
2013-12-05 15:11:00,50.7,49.6,29.93,South,191,13.0,15.0,96,0.00,,,0.00,WUHU216DAVISVP2,2013-12-05 20:11:00,
2013-12-05 15:16:00,50.6,49.5,29.93,SSE,156,4.3,15.0,96,0.00,,,0.00,WUHU216DAVISVP2,2013-12-05 20:16:00,
2013-12-05 15:21:00,50.5,49.4,29.94,South,182,5.8,15.0,96,0.00,,,0.00,WUHU216DAVISVP2,2013-12-05 20:21:00,
2013-12-05 15:26:00,50.5,49.4,29.94,SSE,165,9.0,14.0,96,0.00,,,0.00,WUHU216DAVISVP2,2013-12-05 20:26:00,
2013-12-05 15:31:00,50.5,49.4,29.94,East,90,8.0,14.0,96,0.00,,,0.00,WUHU216DAVISVP2,2013-12-05 20:31:00,
2013-12-05 15:36:00,50.4,49.3,29.93,South,172,8.0,14.0,96,0.00,,,0.00,WUHU216DAVISVP2,2013-12-05 20:36:00,
2013-12-05 15:41:00,50.4,49.3,29.94,South,173,8.0,15.0,96,0.00,,,0.00,WUHU216DAVISVP2,2013-12-05 20:41:00,
2013-12-05 15:46:00,50.5,49.7,29.94,SSE,161,8.0,18.0,97,0.00,,,0.00,WUHU216DAVISVP2,2013-12-05 20:46:00,
2013-12-05 15:51:00,50.5,49.7,29.93,South,179,6.5,18.0,97,0.00,,,0.00,WUHU216DAVISVP2,2013-12-05 20:51:00,
2013-12-05 15:56:00,50.5,49.7,29.93,South,181,5.3,18.0,97,0.00,,,0.00,WUHU216DAVISVP2,2013-12-05 20:56:00,
2013-12-05 16:01:00,50.6,49.7,29.93,SSW,197,4.0,13.0,97,0.00,,,0.00,WUHU216DAVISVP2,2013-12-05 21:01:00,
2013-12-05 16:06:00,50.7,49.8,29.93,South,176,7.0,14.0,97,0.00,,,0.00,WUHU216DAVISVP2,2013-12-05 21:06:00,
2013-12-05 16:11:00,50.8,49.9,29.93,SSE,162,8.0,14.0,97,0.00,,,0.00,WUHU216DAVISVP2,2013-12-05 21:11:00,
2013-12-05 16:16:00,51.0,50.1,29.93,South,190,8.4,16.0,97,0.00,,,0.00,WUHU216DAVISVP2,2013-12-05 21:16:00,
2013-12-05 16:21:00,51.0,50.1,29.94,SSW,204,5.4,16.0,97,0.00,,,0.00,WUHU216DAVISVP2,2013-12-05 21:21:00,
2013-12-05 16:26:00,51.2,50.3,29.94,South,184,10.0,16.0,97,0.00,,,0.00,WUHU216DAVISVP2,2013-12-05 21:26:00,
2013-12-05 16:31:00,51.4,50.5,29.94,South,181,8.4,16.0,97,0.00,,,0.00,WUHU216DAVISVP2,2013-12-05 21:31:00,
2013-12-05 16:36:00,51.5,50.6,29.94,SSW,199,6.8,18.0,97,0.00,,,0.00,WUHU216DAVISVP2,2013-12-05 21:36:00,
2013-12-05 16:41:00,51.6,50.7,29.94,South,179,8.7,18.0,97,0.00,,,0.00,WUHU216DAVISVP2,2013-12-05 21:41:00,
2013-12-05 16:46:00,51.8,50.9,29.94,South,189,8.0,20.0,97,0.00,,,0.00,WUHU216DAVISVP2,2013-12-05 21:46:00,
2013-12-05 16:51:00,51.8,50.9,29.93,South,178,15.0,21.0,97,0.00,,,0.00,WUHU216DAVISVP2,2013-12-05 21:51:00,
2013-12-05 16:56:00,51.8,50.9,29.93,SE,141,7.0,22.0,97,0.00,,,0.00,WUHU216DAVISVP2,2013-12-05 21:56:00,
2013-12-05 17:01:00,51.8,50.9,29.92,South,180,10.1,22.0,97,0.00,,,0.00,WUHU216DAVISVP2,2013-12-05 22:01:00,
2013-12-05 17:06:00,51.8,50.9,29.92,SSE,156,9.0,22.0,97,0.00,,,0.00,WUHU216DAVISVP2,2013-12-05 22:06:00,
2013-12-05 17:11:00,51.7,50.8,29.91,SSE,156,13.0,22.0,97,0.00,,,0.00,WUHU216DAVISVP2,2013-12-05 22:11:00,
2013-12-05 17:16:00,51.6,50.7,29.91,South,179,7.2,20.0,97,0.00,,,0.00,WUHU216DAVISVP2,2013-12-05 22:16:00,
2013-12-05 17:21:00,51.5,50.6,29.92,South,183,8.9,20.0,97,0.00,,,0.00,WUHU216DAVISVP2,2013-12-05 22:21:00,
2013-12-05 17:26:00,51.4,50.6,29.93,South,181,6.1,20.0,97,0.00,,,0.00,WUHU216DAVISVP2,2013-12-05 22:26:00,
2013-12-05 17:31:00,51.4,50.5,29.93,SW,219,5.9,16.0,97,0.00,,,0.00,WUHU216DAVISVP2,2013-12-05 22:31:00,
2013-12-05 17:36:00,51.4,50.5,29.92,South,177,7.6,15.0,97,0.00,,,0.00,WUHU216DAVISVP2,2013-12-05 22:36:00,
2013-12-05 17:41:00,51.4,50.5,29.92,SSE,166,8.0,15.0,97,0.00,,,0.00,WUHU216DAVISVP2,2013-12-05 22:41:00,
2013-12-05 17:46:00,51.4,50.5,29.93,SSE,166,6.3,15.0,97,0.00,,,0.00,WUHU216DAVISVP2,2013-12-05 22:46:00,
2013-12-05 17:51:00,51.5,50.6,29.94,SSW,212,5.3,15.0,97,0.00,,,0.00,WUHU216DAVISVP2,2013-12-05 22:51:00,
2013-12-05 17:56:00,51.6,50.7,29.93,South,189,5.2,15.0,97,0.00,,,0.00,WUHU216DAVISVP2,2013-12-05 22:56:00,
2013-12-05 18:01:00,51.7,50.8,29.93,South,179,6.1,15.0,97,0.00,,,0.00,WUHU216DAVISVP2,2013-12-05 23:01:00,
2013-12-05 18:06:00,51.8,50.9,29.93,SW,224,4.6,15.0,97,0.00,,,0.00,WUHU216DAVISVP2,2013-12-05 23:06:00,
2013-12-05 18:11:00,51.9,51.0,29.92,SE,127,7.0,14.0,97,0.00,,,0.00,WUHU216DAVISVP2,2013-12-05 23:11:00,
2013-12-05 18:16:00,52.0,51.1,29.92,SSE,168,4.7,18.0,97,0.00,,,0.00,WUHU216DAVISVP2,2013-12-05 23:16:00,
2013-12-05 18:21:00,52.0,50.9,29.92,SSW,192,4.6,18.0,96,0.00,,,0.00,WUHU216DAVISVP2,2013-12-05 23:21:00,
2013-12-05 18:26:00,52.1,51.0,29.92,South,181,5.8,18.0,96,0.00,,,0.00,WUHU216DAVISVP2,2013-12-05 23:26:00,
2013-12-05 18:31:00,52.2,51.1,29.92,SW,221,10.0,18.0,96,0.00,,,0.00,WUHU216DAVISVP2,2013-12-05 23:31:00,
2013-12-05 18:36:00,52.3,51.2,29.91,SSW,201,6.4,19.0,96,0.00,,,0.00,WUHU216DAVISVP2,2013-12-05 23:36:00,
2013-12-05 18:41:00,52.3,51.2,29.92,SW,215,4.8,19.0,96,0.00,,,0.00,WUHU216DAVISVP2,2013-12-05 23:41:00,
2013-12-05 18:46:00,52.3,51.2,29.92,SSW,206,3.0,19.0,96,0.00,,,0.00,WUHU216DAVISVP2,2013-12-05 23:46:00,
2013-12-05 18:51:00,52.3,51.2,29.92,South,179,4.4,19.0,96,0.00,,,0.00,WUHU216DAVISVP2,2013-12-05 23:51:00,
2013-12-05 18:56:00,52.3,51.2,29.91,South,183,6.4,14.0,96,0.00,,,0.00,WUHU216DAVISVP2,2013-12-05 23:56:00,
2013-12-05 19:01:00,52.4,51.3,29.91,SSW,210,9.0,15.0,96,0.00,,,0.00,WUHU216DAVISVP2,2013-12-06 00:01:00,
2013-12-05 19:06:00,52.5,51.4,29.91,South,176,7.1,18.0,96,0.00,,,0.00,WUHU216DAVISVP2,2013-12-06 00:06:00,
2013-12-05 19:11:00,52.5,51.4,29.91,SW,217,8.0,18.0,96,0.00,,,0.00,WUHU216DAVISVP2,2013-12-06 00:11:00,
2013-12-05 19:16:00,52.4,51.3,29.90,South,183,5.0,18.0,96,0.00,,,0.00,WUHU216DAVISVP2,2013-12-06 00:16:00,
2013-12-05 19:21:00,52.5,51.4,29.91,SSW,205,5.4,18.0,96,0.00,,,0.00,WUHU216DAVISVP2,2013-12-06 00:21:00,
2013-12-05 19:26:00,52.6,51.5,29.90,SSW,196,4.8,17.0,96,0.00,,,0.00,WUHU216DAVISVP2,2013-12-06 00:26:00,
2013-12-05 19:31:00,52.6,51.5,29.89,SSW,192,7.1,16.0,96,0.00,,,0.00,WUHU216DAVISVP2,2013-12-06 00:31:00,
2013-12-05 19:36:00,52.6,51.5,29.89,South,184,6.3,16.0,96,0.00,,,0.00,WUHU216DAVISVP2,2013-12-06 00:36:00,
2013-12-05 19:41:00,52.7,51.6,29.90,SSW,212,5.6,16.0,96,0.00,,,0.00,WUHU216DAVISVP2,2013-12-06 00:41:00,
2013-12-05 19:46:00,52.8,51.7,29.90,SW,214,2.4,16.0,96,0.00,,,0.00,WUHU216DAVISVP2,2013-12-06 00:46:00,
2013-12-05 19:51:00,52.8,51.7,29.89,South,179,2.0,15.0,96,0.00,,,0.00,WUHU216DAVISVP2,2013-12-06 00:51:00,
2013-12-05 19:56:00,52.8,51.7,29.89,ESE,112,8.0,15.0,96,0.00,,,0.00,WUHU216DAVISVP2,2013-12-06 00:56:00,
2013-12-05 20:01:00,52.8,51.7,29.90,SW,229,5.0,13.0,96,0.00,,,0.00,WUHU216DAVISVP2,2013-12-06 01:01:00,
2013-12-05 20:06:00,52.8,51.7,29.90,SSW,197,2.5,13.0,96,0.00,,,0.00,WUHU216DAVISVP2,2013-12-06 01:06:00,
2013-12-05 20:11:00,52.8,51.7,29.90,South,184,5.2,12.0,96,0.00,,,0.00,WUHU216DAVISVP2,2013-12-06 01:11:00,
2013-12-05 20:16:00,52.9,51.8,29.90,SW,217,4.4,12.0,96,0.00,,,0.00,WUHU216DAVISVP2,2013-12-06 01:16:00,
2013-12-05 20:21:00,52.9,51.8,29.90,South,186,7.0,12.0,96,0.00,,,0.00,WUHU216DAVISVP2,2013-12-06 01:21:00,
2013-12-05 20:26:00,52.9,51.5,29.90,SSE,160,5.7,12.0,95,0.00,,,0.00,WUHU216DAVISVP2,2013-12-06 01:26:00,
2013-12-05 20:31:00,52.9,51.5,29.90,South,190,6.0,14.0,95,0.00,,,0.00,WUHU216DAVISVP2,2013-12-06 01:31:00,
2013-12-05 20:36:00,52.9,51.5,29.90,SW,218,3.5,14.0,95,0.00,,,0.00,WUHU216DAVISVP2,2013-12-06 01:36:00,
2013-12-05 20:41:00,52.9,51.5,29.90,SW,219,8.0,14.0,95,0.00,,,0.00,WUHU216DAVISVP2,2013-12-06 01:41:00,
2013-12-05 20:46:00,52.9,51.5,29.90,South,183,4.0,14.0,95,0.00,,,0.00,WUHU216DAVISVP2,2013-12-06 01:46:00,
2013-12-05 20:51:00,52.9,51.5,29.90,South,179,3.1,13.0,95,0.00,,,0.00,WUHU216DAVISVP2,2013-12-06 01:51:00,
2013-12-05 20:56:00,53.0,51.6,29.90,South,175,6.8,13.0,95,0.00,,,0.00,WUHU216DAVISVP2,2013-12-06 01:56:00,
2013-12-05 21:01:00,53.0,51.6,29.90,South,184,6.1,13.0,95,0.00,,,0.00,WUHU216DAVISVP2,2013-12-06 02:01:00,
2013-12-05 21:06:00,53.0,51.6,29.89,SSE,165,6.2,13.0,95,0.00,,,0.00,WUHU216DAVISVP2,2013-12-06 02:06:00,
2013-12-05 21:11:00,53.0,51.6,29.90,SSW,212,3.6,12.0,95,0.00,,,0.00,WUHU216DAVISVP2,2013-12-06 02:11:00,
2013-12-05 21:16:00,53.0,51.6,29.90,South,177,7.0,12.0,95,0.00,,,0.00,WUHU216DAVISVP2,2013-12-06 02:16:00,
2013-12-05 21:21:00,53.0,51.6,29.90,South,174,4.1,12.0,95,0.00,,,0.00,WUHU216DAVISVP2,2013-12-06 02:21:00,
2013-12-05 21:26:00,53.0,51.6,29.90,SSE,162,7.0,12.0,95,0.00,,,0.00,WUHU216DAVISVP2,2013-12-06 02:26:00,
2013-12-05 21:31:00,53.0,51.6,29.90,SSW,200,6.0,12.0,95,0.00,,,0.00,WUHU216DAVISVP2,2013-12-06 02:31:00,
2013-12-05 21:36:00,53.0,51.6,29.91,South,189,3.4,12.0,95,0.00,,,0.00,WUHU216DAVISVP2,2013-12-06 02:36:00,
2013-12-05 21:41:00,53.0,51.6,29.92,South,178,4.3,11.0,95,0.00,,,0.00,WUHU216DAVISVP2,2013-12-06 02:41:00,
2013-12-05 21:46:00,53.0,51.6,29.92,SSW,201,1.2,11.0,95,0.00,,,0.00,WUHU216DAVISVP2,2013-12-06 02:46:00,
2013-12-05 21:51:00,53.0,51.6,29.91,South,176,1.6,11.0,95,0.00,,,0.00,WUHU216DAVISVP2,2013-12-06 02:51:00,
2013-12-05 21:56:00,53.0,51.6,29.91,SSW,192,3.8,11.0,95,0.00,,,0.00,WUHU216DAVISVP2,2013-12-06 02:56:00,
2013-12-05 22:01:00,53.0,51.6,29.91,WSW,238,7.0,8.0,95,0.00,,,0.00,WUHU216DAVISVP2,2013-12-06 03:01:00,
2013-12-05 22:06:00,53.0,51.3,29.91,South,173,4.0,9.0,94,0.00,,,0.00,WUHU216DAVISVP2,2013-12-06 03:06:00,
2013-12-05 22:11:00,53.0,51.3,29.91,SSE,150,1.7,9.0,94,0.00,,,0.00,WUHU216DAVISVP2,2013-12-06 03:11:00,
2013-12-05 22:16:00,53.0,51.3,29.91,SSE,147,2.3,8.0,94,0.00,,,0.00,WUHU216DAVISVP2,2013-12-06 03:16:00,
2013-12-05 22:21:00,53.0,51.3,29.91,SE,127,3.0,6.0,94,0.00,,,0.00,WUHU216DAVISVP2,2013-12-06 03:21:00,
2013-12-05 22:26:00,53.0,51.3,29.91,SE,139,3.8,8.0,94,0.00,,,0.00,WUHU216DAVISVP2,2013-12-06 03:26:00,
2013-12-05 22:31:00,53.0,51.3,29.91,South,191,4.0,8.0,94,0.00,,,0.00,WUHU216DAVISVP2,2013-12-06 03:31:00,
2013-12-05 22:36:00,53.0,51.3,29.91,East,101,4.0,8.0,94,0.00,,,0.00,WUHU216DAVISVP2,2013-12-06 03:36:00,
2013-12-05 22:41:00,53.0,51.3,29.91,SSE,152,3.0,9.0,94,0.00,,,0.00,WUHU216DAVISVP2,2013-12-06 03:41:00,
2013-12-05 22:46:00,52.9,51.2,29.91,SSE,158,3.0,9.0,94,0.00,,,0.00,WUHU216DAVISVP2,2013-12-06 03:46:00,
2013-12-05 22:51:00,52.9,51.5,29.90,SE,129,5.0,8.0,95,0.00,,,0.00,WUHU216DAVISVP2,2013-12-06 03:51:00,
2013-12-05 22:56:00,52.9,51.5,29.90,SSE,151,3.9,7.0,95,0.00,,,0.00,WUHU216DAVISVP2,2013-12-06 03:56:00,
2013-12-05 23:01:00,52.8,51.4,29.90,SSE,168,2.4,8.0,95,0.00,,,0.00,WUHU216DAVISVP2,2013-12-06 04:01:00,
2013-12-05 23:06:00,52.8,51.4,29.90,South,172,2.8,8.0,95,0.00,,,0.00,WUHU216DAVISVP2,2013-12-06 04:06:00,
2013-12-05 23:11:00,52.8,51.4,29.90,SE,138,4.0,8.0,95,0.00,,,0.00,WUHU216DAVISVP2,2013-12-06 04:11:00,
2013-12-05 23:16:00,52.8,51.4,29.91,SSW,196,3.2,8.0,95,0.00,,,0.00,WUHU216DAVISVP2,2013-12-06 04:16:00,
2013-12-05 23:21:00,52.8,51.4,29.91,South,186,5.3,8.0,95,0.00,,,0.00,WUHU216DAVISVP2,2013-12-06 04:21:00,
2013-12-05 23:26:00,52.8,51.4,29.91,South,190,3.8,8.0,95,0.00,,,0.00,WUHU216DAVISVP2,2013-12-06 04:26:00,
2013-12-05 23:31:00,52.7,51.3,29.91,SSE,166,5.0,9.0,95,0.00,,,0.00,WUHU216DAVISVP2,2013-12-06 04:31:00,
2013-12-05 23:36:00,52.7,51.3,29.91,South,184,3.9,9.0,95,0.00,,,0.00,WUHU216DAVISVP2,2013-12-06 04:36:00,
2013-12-05 23:41:00,52.7,51.3,29.91,SSW,196,3.1,10.0,95,0.00,,,0.00,WUHU216DAVISVP2,2013-12-06 04:41:00,
2013-12-05 23:46:00,52.7,51.3,29.91,SW,216,3.5,10.0,95,0.00,,,0.00,WUHU216DAVISVP2,2013-12-06 04:46:00,
2013-12-05 23:51:00,52.6,51.2,29.91,NW,316,4.0,10.0,95,0.00,,,0.00,WUHU216DAVISVP2,2013-12-06 04:51:00,
2013-12-05 23:56:00,52.5,51.1,29.92,NW,319,4.0,10.0,95,0.00,,,0.00,WUHU216DAVISVP2,2013-12-06 04:56:00,